Theta_e
297 296 295 294 292 291 291 290 290 290 289 289 289 288 288 288 287 287 287 287 287 287 287 287 287 287 287 287 287 287 287 287 287 287 287 287 287 287 287 287 287 288 288 288 288 288 288 288 288 288 288 288 288 288 288 288 288 288 288 288 288 289 289 290 290 290 290 291 291 290 290 290 290 291 291 290 291 291 291 291 292 292 292 292 293 293
295 294 294 293 292 291 291 290 290 289 289 289 288 288 288 287 287 287 287 287 287 287 287 287 287 287 287 287 287 287 287 287 287 287 287 287 287 287 287 287 288 288 288 288 288 288 288 288 288 288 288 288 288 288 288 288 288 288 288 288 288 288 289 289 289 289 289 289 289 289 289 289 289 290 290 290 290 290 290 291 291 292 291 292 292 292
292 292 292 292 291 291 290 289 289 288 288 288 288 288 287 287 287 287 287 287 287 287 287 287 287 287 287 287 287 287 287 287 287 287 287 287 287 287 288 288 288 288 288 288 288 288 288 288 288 288 288 288 288 288 288 288 288 288 288 288 288 288 289 289 289 289 289 289 289 289 289 289 289 289 289 289 289 289 290 290 290 291 291 291 291 291
291 291 290 290 289 289 289 288 288 288 288 288 287 287 287 287 287 287 287 287 287 287 286 286 286 286 286 286 287 287 287 287 287 287 288 287 288 288 288 288 288 288 288 288 288 288 288 288 288 288 288 288 288 288 288 288 288 288 288 288 288 288 289 289 289 289 289 289 289 289 289 289 289 289 289 289 289 289 289 289 290 290 290 290 290 291
290 290 289 289 289 288 288 288 288 288 287 287 287 287 287 287 286 286 286 286 286 286 286 286 286 286 286 286 287 287 287 287 287 288 288 288 288 288 288 288 288 288 288 288 288 288 288 287 287 287 287 287 287 288 288 287 288 288 288 288 288 288 288 288 288 288 289 289 289 288 288 288 288 288 288 288 288 288 289 289 289 289 289 289 290 290
290 289 289 289 288 288 288 288 287 287 287 287 287 287 286 286 286 286 286 286 286 286 286 286 286 286 286 287 287 287 288 288 288 288 288 288 288 288 288 288 287 288 287 287 287 287 287 287 287 287 287 287 288 288 288 288 288 288 288 288 288 288 288 288 288 288 288 288 288 288 288 288 288 288 288 288 288 288 288 288 288 288 288 289 289 289
289 289 289 288 288 288 288 287 287 287 287 287 286 286 286 286 286 286 286 286 286 286 286 286 286 286 287 287 287 287 288 288 288 288 288 288 288 288 288 288 288 288 288 288 288 288 288 288 288 288 288 288 288 288 288 288 288 288 288 288 288 288 288 288 288 288 288 288 288 288 288 288 288 288 288 288 288 288 288 288 288 288 288 288 289 289
289 289 288 288 288 287 287 287 287 287 287 286 286 286 286 286 286 286 286 286 286 286 286 286 286 286 287 287 287 287 287 287 287 287 288 288 288 288 288 288 288 288 288 288 288 288 288 288 288 288 288 288 288 288 288 288 288 288 288 288 288 288 288 288 288 288 288 288 288 287 287 287 287 287 287 287 287 287 287 287 288 288 288 288 288 288
289 288 288 288 287 287 287 287 287 287 286 286 286 286 286 286 286 286 286 286 285 285 285 285 286 286 287 287 287 287 287 287 287 287 287 287 287 288 288 288 288 288 288 288 288 288 288 288 288 288 288 288 288 288 288 288 288 288 288 288 288 288 288 288 288 288 287 287 287 287 287 287 287 287 287 287 287 287 287 287 287 288 288 288 288 289
288 288 288 287 287 287 287 287 287 287 286 286 286 286 286 286 286 286 286 286 285 285 285 285 286 286 286 287 287 287 287 287 287 287 287 287 287 288 288 288 288 288 288 288 288 288 288 288 288 288 288 288 288 288 288 288 288 288 288 288 288 288 287 287 287 287 287 287 287 287 287 287 287 287 287 287 287 287 287 287 288 288 288 288 288 289
288 288 288 287 287 287 287 287 287 286 286 286 286 286 286 286 286 286 286 286 285 285 285 285 285 286 286 287 287 287 287 287 287 287 287 287 287 288 288 288 288 288 288 288 288 288 288 288 288 288 288 288 288 288 288 288 288 288 288 288 288 287 287 287 287 287 287 287 287 287 287 287 287 287 287 287 287 287 287 287 288 288 288 288 289 289
288 287 287 287 287 287 287 287 286 286 286 286 286 286 286 286 286 286 286 285 285 285 285 285 285 286 286 286 286 287 287 287 286 287 287 287 287 287 287 287 287 287 288 288 288 288 288 288 288 288 288 288 288 288 288 288 288 288 288 288 288 287 287 287 287 287 287 287 287 287 287 287 287 287 287 287 287 287 287 287 287 288 288 288 288 289
287 287 288 287 287 287 287 287 287 286 286 286 287 287 287 286 286 286 285 285 285 285 285 285 285 285 286 286 286 286 286 286 286 286 287 287 287 287 287 287 287 287 287 287 288 288 288 288 288 288 288 288 288 288 288 288 288 288 288 288 288 287 287 287 287 287 287 287 287 287 287 287 287 287 287 287 287 287 287 287 287 287 288 288 288 288
288 288 287 287 287 287 287 287 287 287 287 286 286 286 286 286 286 285 285 285 285 285 285 285 285 285 286 286 286 286 286 286 287 287 287 287 287 287 287 287 287 287 287 287 287 288 288 288 288 288 288 288 288 288 288 288 288 288 288 288 288 288 287 287 287 287 287 287 287 287 287 287 287 287 287 287 287 287 287 287 287 287 288 288 288 288
288 288 287 287 287 287 287 287 287 287 286 286 286 286 286 286 285 285 285 285 284 285 285 285 285 285 286 286 286 287 287 287 287 287 287 287 287 287 287 286 286 287 287 287 287 288 288 288 288 288 288 289 289 289 288 288 288 288 288 288 288 288 287 287 287 287 287 287 287 287 287 287 287 287 287 287 287 287 287 287 287 287 287 288 288 288
287 287 287 287 287 287 287 287 286 286 286 286 286 286 286 285 285 285 284 284 284 284 285 285 285 285 286 286 286 287 287 287 287 287 287 286 286 287 287 286 286 286 287 287 287 287 288 288 288 288 289 289 289 289 289 288 288 288 288 288 288 287 287 287 287 287 287 287 287 286 286 286 286 286 286 286 287 287 287 287 287 287 287 287 288 288
287 287 287 287 287 287 287 286 286 286 286 286 286 285 285 285 285 284 284 284 284 285 285 285 285 285 286 286 286 287 287 287 286 286 286 286 286 286 287 286 286 286 287 287 288 287 288 288 288 289 289 289 289 289 289 289 288 288 288 288 287 287 287 287 287 287 286 286 286 286 286 286 286 286 286 286 286 286 287 287 287 287 287 287 287 288
287 287 287 287 287 286 286 286 286 286 286 286 285 285 285 284 284 284 284 284 285 285 285 285 285 285 286 286 286 286 286 286 286 286 286 286 286 286 286 286 286 286 287 287 288 288 288 288 288 289 289 289 289 289 289 288 288 288 287 287 287 287 287 286 286 286 286 286 286 286 286 286 286 286 286 286 286 286 286 286 286 287 287 287 287 287
287 287 287 287 286 286 286 286 286 285 285 285 285 284 284 284 284 284 284 284 285 285 285 285 285 285 286 286 286 286 286 286 286 285 285 285 286 286 286 286 286 286 286 287 287 287 287 288 288 289 289 289 289 289 288 288 288 288 287 287 287 286 286 286 286 286 286 286 286 286 286 286 286 286 286 286 286 286 286 286 286 286 286 286 287 287
287 287 286 286 286 286 286 285 285 285 285 285 284 284 284 284 284 284 285 285 285 285 285 285 286 286 286 286 286 286 286 286 285 285 285 285 285 286 286 286 286 286 286 287 287 287 287 287 288 288 288 289 289 288 288 288 288 287 287 287 287 287 286 286 286 286 286 286 286 286 286 286 286 286 286 286 286 286 286 286 286 286 286 286 286 287
286 286 286 286 286 285 285 285 285 285 285 284 284 284 284 284 285 285 285 285 285 285 285 285 285 285 285 285 285 285 286 285 285 285 285 285 285 286 286 286 285 285 286 286 287 287 287 287 287 288 288 288 288 288 288 288 288 287 287 287 287 287 286 286 286 286 286 286 286 286 286 286 286 286 286 286 286 286 286 286 286 286 286 286 286 286
286 286 286 285 285 285 285 285 284 284 284 284 284 284 284 285 285 286 286 286 286 285 285 285 285 285 285 285 285 285 285 285 285 284 284 284 285 286 286 286 285 285 285 286 286 286 286 287 287 287 287 288 288 288 288 288 288 287 287 287 287 287 286 286 286 286 286 286 286 286 286 286 286 286 286 286 286 286 286 286 286 286 286 286 286 286
285 285 285 285 284 284 284 284 284 284 284 284 284 284 285 286 286 286 286 286 286 285 285 285 285 285 285 285 285 285 285 285 285 284 284 284 285 286 286 285 285 285 285 286 286 286 286 286 287 287 287 288 288 288 288 288 288 287 287 287 287 287 287 287 286 286 286 286 286 286 286 286 286 286 286 286 286 286 286 286 286 286 286 286 286 286
284 284 284 284 284 284 284 284 284 284 284 284 284 285 286 286 286 286 286 285 285 285 285 285 285 285 285 285 285 285 285 285 285 284 284 284 285 285 285 285 285 285 285 285 285 285 286 286 286 287 287 287 288 288 288 288 288 288 287 287 287 287 287 287 287 287 287 286 286 286 286 286 286 286 286 286 286 286 286 286 285 285 286 286 286 286
284 284 284 284 284 283 283 283 283 283 284 284 285 285 286 286 286 286 286 285 285 285 284 284 284 284 285 285 285 285 285 285 285 284 284 284 285 285 285 285 285 285 285 285 285 285 285 286 286 286 287 287 288 288 288 288 288 288 288 288 287 287 287 287 287 287 287 287 287 286 286 286 286 286 286 286 286 286 286 286 286 285 286 285 286 286
283 283 283 283 283 283 283 283 283 283 283 283 284 284 285 285 285 285 285 285 285 285 284 284 284 284 285 285 285 285 285 285 285 284 284 284 285 285 285 285 285 285 285 285 285 285 285 286 286 286 287 287 288 288 288 288 288 288 288 288 288 288 288 287 287 287 287 287 287 287 287 287 286 286 286 286 286 286 286 286 286 286 286 285 286 286
283 283 282 282 282 282 282 282 282 283 283 283 283 284 284 284 284 284 285 285 285 284 284 284 284 284 285 285 285 285 285 285 285 285 284 284 284 284 285 285 285 284 285 285 285 285 285 286 286 286 287 287 287 288 288 288 288 287 288 288 288 288 288 288 288 288 288 288 287 287 287 287 287 286 286 286 286 286 286 285 285 285 285 285 285 286
282 282 282 282 282 282 282 282 283 283 283 284 284 284 284 284 284 284 285 285 285 284 284 284 284 284 284 284 285 285 285 285 285 285 285 284 284 284 284 285 284 284 284 284 285 285 285 285 286 286 286 286 287 287 287 287 287 287 287 288 288 288 288 288 288 288 288 288 288 287 287 287 287 286 286 286 286 286 286 285 285 285 285 285 285 285
282 282 282 282 282 282 282 283 283 284 284 284 284 284 285 285 285 285 285 285 285 284 284 284 284 284 284 284 285 285 285 285 285 285 284 284 284 284 284 284 284 284 284 284 284 285 285 285 285 285 286 286 286 286 286 287 287 287 288 288 288 288 288 288 288 288 288 287 287 287 287 287 287 287 286 286 286 286 286 285 285 285 285 285 285 285
282 282 282 283 283 283 283 284 284 284 285 285 285 285 285 285 285 285 285 285 285 285 284 284 284 284 284 284 284 284 285 285 285 285 284 284 284 284 284 284 284 284 284 283 284 284 284 285 285 285 285 285 285 286 286 287 287 287 288 288 288 288 288 288 287 287 287 287 287 287 287 287 287 286 286 286 286 286 285 285 285 285 285 285 284 284
282 283 283 284 284 284 284 285 285 285 286 286 286 286 286 286 286 286 286 286 285 285 285 284 284 284 283 283 283 283 284 285 285 284 284 284 284 284 284 284 284 284 283 283 283 283 284 284 285 285 285 285 285 286 286 286 287 287 287 287 287 288 288 287 287 287 287 287 287 287 287 287 287 287 286 286 286 286 286 285 285 285 285 284 284 284
282 283 284 284 285 285 285 286 286 286 286 286 286 286 286 286 286 286 286 286 286 285 285 284 284 284 283 283 283 283 284 285 286 285 284 284 283 283 283 283 283 283 283 283 283 283 283 283 284 285 285 285 285 285 286 286 286 286 286 287 287 287 287 287 287 287 287 287 287 287 287 287 287 287 287 286 286 286 286 286 285 285 285 284 284 284
283 283 284 284 285 285 286 286 286 286 286 286 287 287 287 287 287 287 286 286 286 286 285 285 284 284 283 283 283 284 285 286 286 285 284 284 283 283 283 283 283 283 283 283 283 283 283 283 283 284 284 284 285 285 285 286 286 286 286 286 286 287 287 287 286 286 286 286 287 287 287 287 287 287 287 286 286 286 286 286 285 285 285 284 284 284
283 284 284 285 285 285 286 286 286 286 287 287 287 287 287 287 287 287 287 287 286 286 286 285 284 284 284 283 284 285 285 286 286 285 284 283 283 283 283 283 283 283 283 283 283 282 282 282 282 282 283 283 284 285 285 286 286 286 286 286 286 286 286 286 286 286 286 286 286 286 287 287 287 287 286 286 286 286 286 286 285 285 285 284 284 284
283 284 285 285 285 286 286 286 286 286 287 287 287 287 287 287 287 287 287 287 286 286 286 286 285 285 284 284 284 285 286 286 286 285 284 283 283 283 283 283 283 283 283 282 282 282 282 282 282 282 282 283 284 285 285 285 285 285 286 286 286 286 286 286 286 286 286 286 286 286 286 286 286 286 286 286 286 286 286 285 285 285 285 285 285 285
284 285 285 285 286 286 286 286 286 286 287 287 287 287 287 287 287 287 287 287 286 286 286 286 286 286 286 286 285 286 286 287 286 285 285 284 283 283 283 283 283 283 283 282 282 282 282 282 282 282 282 282 283 284 285 286 286 286 286 286 286 286 286 286 286 285 285 285 286 286 286 286 286 286 286 286 286 285 285 285 285 285 285 285 285 285
284 285 285 286 286 286 287 287 287 287 287 287 287 287 287 287 287 287 286 286 286 286 286 286 286 286 286 286 286 286 287 287 287 286 286 285 284 284 283 284 284 283 283 283 282 282 282 282 282 282 282 282 283 283 284 285 286 286 286 287 286 286 286 286 286 285 285 285 285 285 285 285 285 285 285 285 285 285 285 285 285 285 285 285 285 285
285 285 286 286 286 287 287 287 287 287 287 287 287 287 287 287 286 286 286 286 286 286 286 286 286 286 286 286 286 287 287 287 287 286 286 285 285 284 284 284 284 284 283 283 282 282 282 281 282 282 282 282 283 283 284 284 285 286 286 286 286 286 286 286 286 285 285 285 285 285 285 285 285 285 285 285 285 285 285 285 285 285 285 285 285 285
285 286 286 286 287 287 287 287 287 287 287 287 287 287 287 286 286 286 286 286 286 286 286 286 286 287 287 287 287 287 287 287 287 287 286 286 286 285 284 284 284 284 284 283 282 282 282 282 282 282 282 282 283 283 284 284 284 285 285 286 286 286 286 286 286 285 285 285 285 285 285 285 285 285 285 285 285 284 284 285 285 285 285 285 285 285
286 286 286 287 287 287 287 287 287 287 287 287 287 287 287 287 287 287 287 286 286 286 286 286 286 286 287 287 287 287 287 287 287 287 287 286 286 285 285 284 284 284 284 283 282 282 282 282 282 282 282 282 282 283 283 284 284 284 284 284 285 286 286 286 286 285 285 285 285 285 285 285 285 285 285 285 285 285 284 285 285 285 285 284 284 284
286 286 287 287 287 287 287 287 287 287 287 287 287 287 287 287 287 287 287 287 286 286 286 286 286 286 286 287 287 287 287 287 287 287 287 286 286 286 285 285 284 284 283 283 283 282 282 282 282 282 282 282 282 282 282 283 284 284 283 283 284 285 286 286 286 286 285 285 285 285 285 285 285 285 285 285 285 285 285 285 285 285 285 284 284 284
286 287 287 287 287 287 287 287 287 287 287 287 287 287 287 286 286 286 286 287 286 286 286 286 286 286 286 286 287 286 286 286 286 286 286 286 286 285 285 285 284 284 283 283 282 282 282 282 282 282 282 282 282 282 282 283 283 283 283 283 284 284 284 285 286 286 285 285 285 285 285 285 285 285 285 285 285 285 285 285 285 285 285 285 285 285
287 287 287 287 287 287 287 287 287 287 287 287 287 287 286 286 286 286 286 286 286 286 286 285 285 285 286 286 286 286 286 286 286 286 286 285 285 285 285 285 284 283 283 283 283 283 282 282 282 282 282 282 282 282 282 282 283 283 284 284 284 284 284 285 285 285 285 285 285 285 285 285 285 285 285 285 285 285 285 285 285 285 285 285 285 285
287 287 287 287 286 286 287 287 287 286 286 287 287 286 286 286 286 286 286 286 286 286 285 285 285 285 285 285 286 286 286 285 285 285 285 285 285 285 284 284 284 283 282 283 283 283 283 283 283 283 283 283 282 282 282 282 283 283 284 284 284 284 284 285 285 285 285 285 285 285 285 285 285 285 285 285 285 285 285 285 285 285 285 285 285 285
287 287 287 287 287 287 287 287 286 286 286 286 286 286 286 286 286 286 285 286 286 285 285 285 284 284 284 284 285 285 285 285 285 285 285 285 285 284 284 284 283 283 283 283 283 283 283 283 283 283 283 283 282 282 282 283 283 284 284 285 285 284 284 285 284 284 284 285 285 285 285 285 285 285 285 285 285 285 285 285 285 285 285 285 285 285
287 287 287 287 287 287 287 287 286 286 286 286 286 286 286 286 285 285 285 285 285 285 285 284 284 283 283 284 285 285 285 286 285 285 285 285 284 284 284 284 283 283 283 283 283 283 283 283 283 283 283 283 283 283 283 283 283 284 284 285 285 284 284 284 284 285 285 285 285 285 285 285 285 285 285 285 285 285 285 285 285 285 285 285 285 285
287 287 287 287 287 287 287 286 286 286 286 286 286 286 285 285 285 285 285 285 285 285 285 284 284 283 284 284 285 285 285 285 285 285 285 285 284 284 284 284 284 283 283 283 283 283 283 283 283 283 283 283 283 283 284 284 284 284 284 285 285 284 284 284 285 285 285 285 285 285 285 285 285 285 285 285 285 285 285 285 286 286 286 286 286 286
287 287 287 287 287 286 286 286 286 286 286 286 286 285 285 285 285 285 285 285 285 285 285 284 284 284 284 285 285 285 285 285 285 285 285 285 285 284 284 284 284 283 283 283 283 283 283 283 283 283 283 283 283 284 284 285 285 285 285 285 285 284 285 285 285 285 285 285 285 286 286 286 286 286 286 286 286 286 286 286 286 286 286 286 286 286
287 287 287 287 286 286 286 286 286 285 285 285 285 285 285 285 285 285 285 285 285 285 284 284 283 284 284 284 285 285 284 284 284 285 285 285 284 284 284 284 284 283 283 283 283 283 283 283 283 283 283 284 284 284 284 285 285 285 285 285 285 285 285 285 285 285 286 286 286 286 286 286 286 286 286 286 286 286 286 286 286 286 286 286 286 286
287 287 287 286 286 285 285 286 285 285 285 285 285 285 285 285 285 285 285 285 285 284 284 284 283 283 284 284 284 284 284 284 284 284 284 285 284 284 284 283 283 283 283 283 283 283 283 283 283 284 284 284 284 284 285 285 285 285 285 285 285 285 285 285 286 286 286 286 286 286 286 286 286 286 286 286 286 286 286 286 286 286 286 286 286 286
287 286 286 286 286 286 286 286 285 285 285 285 285 285 285 285 285 285 284 284 284 284 284 284 283 283 283 284 284 284 284 284 284 284 284 284 284 284 283 283 283 283 283 283 283 283 283 283 283 284 284 285 285 285 285 285 285 285 285 285 285 285 286 286 286 286 286 286 286 286 286 286 286 286 286 286 286 286 286 286 286 286 286 286 286 287
Wind_Speed
17 17 18 18 18 20 22 24 25 27 29 29 29 29 29 29 30 30 29 29 28 28 28 27 27 27 27 27 26 25 25 24 24 23 23 23 23 23 23 23 23 23 23 23 23 23 23 23 23 24 24 24 24 24 24 24 24 24 24 24 24 24 23 24 24 24 25 25 25 25 26 26 26 27 27 27 28 28 28 29 29 29 29 30 30 29
17 17 18 18 19 20 22 23 25 26 28 29 29 29 29 29 29 29 29 29 28 27 27 27 26 26 26 25 25 24 23 23 22 22 22 22 22 23 23 23 23 23 23 23 23 23 23 23 23 23 23 23 23 23 23 23 23 23 23 23 23 23 23 24 24 25 25 25 26 26 26 26 27 27 27 28 28 28 28 29 29 29 30 30 30 30
16 17 18 19 20 21 23 24 25 26 27 28 28 29 29 29 29 29 29 28 27 26 26 25 25 25 24 24 23 23 22 22 22 21 21 22 22 22 22 22 22 22 22 22 22 22 22 22 22 22 22 22 22 22 22 22 22 23 23 23 23 23 24 24 24 25 25 26 26 26 27 27 27 28 28 28 29 29 29 29 29 29 30 30 30 30
16 17 18 19 21 22 23 24 25 26 27 28 28 29 29 29 29 29 29 28 27 26 25 24 23 23 23 23 22 22 21 21 21 20 20 21 21 21 21 21 22 22 21 21 21 21 21 21 21 21 21 21 22 22 22 22 23 23 23 23 23 23 24 24 25 25 26 26 26 27 27 28 29 29 30 30 30 31 31 31 31 31 31 31 30 30
17 17 18 19 20 21 22 24 25 26 27 28 28 28 28 28 28 29 29 28 26 25 23 22 21 21 21 21 21 20 20 20 19 19 19 19 20 20 20 20 20 20 20 20 19 19 20 20 20 20 21 21 21 21 22 22 23 23 23 23 23 24 24 25 26 26 27 27 28 28 29 30 31 32 32 32 33 33 33 33 33 33 33 32 31 30
16 17 19 20 21 22 23 24 25 26 27 27 27 27 27 27 28 28 28 27 25 24 22 21 20 19 19 19 20 19 19 19 18 18 18 18 18 18 18 18 18 18 18 18 18 18 18 19 19 19 20 20 20 21 21 21 22 22 23 23 23 24 25 26 27 27 28 29 30 31 31 32 32 32 33 33 33 33 33 34 34 34 34 33 32 31
18 19 21 22 24 24 25 25 25 25 25 25 26 26 26 27 27 26 26 25 24 23 22 21 20 19 18 18 18 18 18 18 18 18 17 17 17 17 17 17 17 17 17 17 17 17 17 18 18 18 19 19 19 20 20 21 21 22 22 23 24 25 26 27 28 29 30 30 31 31 31 31 31 31 31 31 32 32 32 32 33 33 33 33 32 31
19 20 22 23 24 24 24 23 23 22 22 23 24 25 26 25 25 24 23 23 22 22 22 21 20 19 18 18 18 18 19 18 18 18 17 17 16 16 16 16 16 16 16 16 16 16 16 17 17 18 18 18 19 19 20 20 21 22 22 23 24 25 26 27 28 28 29 29 29 30 30 30 30 30 30 30 30 31 31 31 32 32 32 31 31 30
21 21 22 23 22 22 22 21 20 20 20 21 23 23 23 23 22 21 21 20 20 20 20 21 21 20 19 18 18 19 19 19 19 18 17 17 16 16 16 16 16 16 16 16 16 16 16 16 16 17 17 18 18 19 19 20 21 22 22 23 24 25 26 26 27 27 28 28 28 29 29 29 29 29 29 30 30 30 31 31 31 31 30 30 29 28
22 22 22 20 19 18 18 18 19 20 20 21 21 21 20 20 19 19 18 18 18 19 19 20 20 20 20 19 19 19 20 19 19 18 18 18 18 18 18 18 18 18 17 17 17 16 16 16 16 16 17 17 17 18 19 20 20 21 22 23 24 24 25 25 26 27 27 28 28 28 29 29 29 29 30 30 30 31 30 30 30 29 29 28 28 28
20 19 17 16 15 15 16 17 18 19 20 19 18 17 16 15 15 16 16 17 18 18 19 19 19 20 20 20 19 19 19 19 19 19 19 19 20 20 20 20 20 20 20 20 19 18 17 17 17 17 16 16 17 17 18 19 20 21 21 22 23 23 24 25 25 26 27 27 28 28 29 29 29 30 30 30 30 30 30 29 29 28 28 28 28 28
17 15 14 13 13 14 14 16 16 16 15 14 13 13 12 12 13 14 16 17 18 19 19 19 19 19 19 20 20 19 19 19 19 19 19 20 20 21 21 22 22 23 23 23 21 20 19 18 17 17 16 16 17 17 18 19 19 20 21 22 22 23 24 24 25 26 27 27 28 28 29 29 29 30 30 29 29 29 29 28 28 28 28 28 28 29
15 14 13 14 14 13 13 13 13 12 11 11 11 12 12 13 13 14 16 17 18 18 18 18 18 19 19 20 19 19 18 18 18 18 18 18 19 20 22 23 24 25 25 24 23 21 19 18 18 17 16 16 17 17 18 19 20 21 21 22 23 23 24 24 25 26 26 27 27 28 28 29 29 29 29 28 28 28 28 28 28 28 29 29 29 29
12 13 13 13 13 12 11 11 11 11 11 11 12 13 13 13 14 14 15 15 16 16 17 18 18 19 19 19 17 16 16 16 16 17 17 17 19 21 23 24 25 26 25 25 23 21 19 18 18 17 16 16 17 18 19 20 21 22 22 23 23 23 24 24 25 25 26 26 26 27 27 27 28 27 27 28 28 28 28 28 28 29 29 29 30 30
12 11 11 11 11 11 10 10 11 11 12 12 12 13 13 13 13 14 15 15 16 16 16 17 18 18 18 17 16 15 14 15 15 16 17 19 20 22 24 25 26 26 25 25 24 22 19 18 18 18 18 18 18 19 21 21 22 23 23 23 23 23 23 23 24 24 24 25 25 25 26 26 26 26 26 27 27 28 28 28 29 29 29 29 30 30
12 11 11 11 12 11 11 11 12 13 13 13 12 12 12 12 13 13 14 15 15 16 16 17 17 17 17 16 14 14 14 14 15 17 19 21 22 24 25 26 27 26 25 24 23 22 20 19 19 19 19 20 20 21 22 23 23 23 23 23 23 23 22 22 22 22 23 23 23 24 24 24 25 25 26 27 27 27 28 28 29 29 30 30 30 30
12 12 12 12 13 12 12 13 13 13 13 12 12 12 12 12 13 14 15 15 15 15 15 16 16 17 16 16 15 14 14 15 16 18 21 23 25 26 27 26 27 27 26 24 23 22 21 21 21 21 21 21 22 22 23 23 23 23 23 22 22 22 22 22 22 22 22 22 22 23 23 24 24 25 26 27 27 27 28 28 29 30 30 30 30 31
11 11 12 12 13 13 13 13 13 12 12 12 12 12 13 14 15 15 15 15 15 16 16 16 16 16 17 17 17 16 16 17 18 20 23 26 28 28 27 26 26 26 25 24 23 22 22 23 23 23 23 23 23 23 23 23 22 22 21 21 21 21 21 22 22 22 22 22 22 23 23 24 24 25 26 27 27 28 28 29 29 30 30 31 31 31
11 11 12 13 13 13 13 13 12 12 12 12 13 14 15 16 16 16 16 16 16 17 17 17 17 18 18 19 19 19 18 20 21 23 24 28 30 29 27 25 25 24 25 24 23 23 23 24 24 25 25 25 25 24 24 23 22 21 20 20 20 21 21 21 22 22 23 23 23 23 24 24 24 25 26 26 27 28 28 29 29 30 30 30 31 31
12 12 12 12 13 13 13 12 12 12 12 13 14 15 16 16 16 16 16 17 18 18 19 19 19 20 20 21 21 21 21 22 24 25 26 28 30 28 25 24 23 24 24 24 23 23 24 25 26 26 27 27 26 26 25 23 22 21 20 20 20 20 21 21 22 22 22 22 23 23 23 24 24 25 25 26 26 27 27 28 28 29 29 30 30 31
14 14 13 13 13 13 13 13 13 13 13 14 15 16 16 16 16 16 17 18 19 19 19 19 20 20 21 22 24 25 26 26 26 25 26 27 28 27 24 23 22 22 23 23 23 23 24 26 27 28 28 28 27 26 25 24 22 22 21 21 20 20 20 21 21 21 22 22 22 22 23 23 24 24 24 25 25 26 26 27 28 28 29 30 30 31
15 15 15 14 15 15 16 16 16 15 16 17 17 17 17 16 17 18 18 18 19 19 19 20 20 22 24 26 28 29 29 26 24 23 23 25 27 27 24 22 21 21 22 22 23 24 25 26 27 28 29 29 28 27 26 24 23 22 22 22 21 21 20 20 20 20 21 21 22 22 22 23 23 24 24 25 25 26 27 27 28 29 29 30 31 31
17 17 17 17 16 16 17 17 17 17 17 17 16 16 16 16 17 17 17 17 18 19 20 22 24 26 28 29 30 29 27 24 22 20 20 22 24 25 23 22 21 21 22 23 23 23 25 26 28 29 29 29 29 27 26 25 24 23 23 23 22 22 21 20 20 20 20 21 21 21 22 23 23 24 25 25 26 27 27 28 29 29 30 30 31 31
16 16 16 16 16 16 17 18 18 18 17 16 15 15 15 15 16 16 17 19 21 23 25 26 27 28 29 29 28 26 23 20 18 18 18 21 23 24 23 22 20 21 22 23 23 23 25 26 28 29 29 30 29 28 26 25 24 24 24 24 23 23 22 21 21 20 20 20 21 21 22 23 23 24 24 25 26 26 27 28 28 29 30 30 30 30
16 16 17 18 18 19 19 20 19 18 17 15 15 16 17 18 19 21 23 24 25 26 26 26 26 27 28 27 25 23 21 18 16 16 18 20 22 23 22 21 20 21 22 23 23 24 25 26 28 30 31 31 29 28 26 25 25 25 25 25 24 24 23 23 22 21 21 21 21 21 21 22 23 23 24 25 25 26 26 27 28 28 28 29 29 30
19 20 21 21 21 21 21 21 20 18 17 16 17 19 20 21 22 24 25 25 26 26 25 25 26 26 26 25 23 22 19 17 16 16 18 19 21 22 22 21 21 21 22 23 23 24 25 28 29 31 31 31 29 28 27 26 26 27 26 26 26 26 25 24 23 22 22 21 21 21 21 21 22 23 23 24 24 25 25 26 27 27 27 28 29 30
21 22 22 22 22 22 22 20 19 18 17 17 17 18 19 21 23 24 25 25 25 24 23 23 24 25 25 24 23 21 19 18 18 18 19 19 20 22 22 21 20 20 22 23 25 26 28 30 31 31 31 30 29 29 28 28 28 28 28 28 27 27 26 25 24 24 23 23 22 22 22 21 21 22 22 22 23 23 24 25 25 26 26 27 29 30
20 20 21 21 21 21 20 19 18 17 16 15 16 17 18 21 22 24 25 24 23 23 22 23 23 24 24 24 24 23 22 21 20 19 17 18 19 20 20 20 20 20 22 24 27 29 29 30 30 30 30 29 29 29 29 29 29 29 29 29 28 27 27 26 26 26 26 25 24 24 23 22 21 21 21 21 21 22 22 23 24 24 25 27 28 29
18 18 18 18 18 17 17 16 15 14 14 15 16 17 18 20 22 23 23 23 22 22 23 23 23 23 23 24 25 25 24 22 19 16 15 15 18 19 20 19 19 20 22 25 28 29 29 28 27 27 26 27 27 28 29 30 30 30 30 29 29 28 28 28 28 28 28 27 26 25 24 23 22 21 21 20 21 21 21 22 22 23 24 26 28 29
16 15 14 13 13 13 13 13 13 13 14 14 15 16 17 19 21 22 22 22 22 22 22 23 23 22 22 23 23 23 22 18 14 12 13 15 17 19 20 20 21 22 23 25 26 28 28 27 26 24 24 25 27 28 30 30 31 30 30 30 30 29 29 29 30 29 29 28 27 26 25 24 23 22 21 21 21 21 21 20 21 22 23 25 27 28
13 12 11 11 10 11 11 11 12 12 13 14 15 16 17 19 20 20 21 21 21 21 21 21 22 21 21 20 19 19 19 16 14 13 15 17 20 22 23 22 23 23 23 23 24 25 26 27 27 26 25 26 28 30 30 30 30 30 30 30 30 30 30 30 31 31 30 30 29 27 26 25 24 23 22 21 21 20 20 19 19 20 22 24 26 27
12 12 11 11 11 11 11 12 12 13 14 15 16 17 18 18 19 19 19 19 19 20 20 20 21 21 20 20 20 21 22 21 19 18 18 19 22 23 23 23 23 24 24 23 23 23 24 26 29 31 30 29 30 30 30 30 29 29 29 30 31 31 31 31 31 31 31 31 30 28 27 26 25 24 23 22 21 20 19 18 18 19 20 22 24 26
12 12 11 11 11 12 12 13 13 14 15 16 17 17 18 18 18 18 18 18 18 19 19 19 20 21 21 22 23 24 25 24 22 20 19 20 22 23 23 24 25 26 26 25 24 24 26 28 31 32 32 31 30 30 30 30 29 29 29 30 31 32 32 32 32 32 32 32 31 30 29 28 27 26 25 24 22 21 20 19 19 19 19 21 23 25
12 12 11 11 12 12 13 13 14 15 16 16 17 17 17 17 18 18 18 18 18 18 19 19 20 21 22 23 24 25 25 23 21 19 19 20 21 23 24 25 26 26 26 26 25 25 26 28 29 30 31 31 31 30 30 29 29 29 29 29 30 31 32 32 32 32 32 32 31 31 30 30 29 28 27 26 24 23 22 21 20 20 20 21 22 24
12 11 11 11 12 12 13 14 15 15 16 16 16 17 17 17 17 17 18 18 18 19 19 19 20 20 21 22 24 25 24 22 20 19 19 20 22 23 24 25 25 26 26 26 26 26 26 27 27 28 29 31 32 32 31 29 28 28 29 29 30 31 32 32 32 32 32 32 32 31 31 31 30 30 29 28 26 25 23 22 21 21 20 20 21 23
12 11 11 12 12 13 13 14 15 15 15 16 16 16 16 17 17 17 18 18 18 19 19 19 20 20 20 21 22 22 22 20 19 18 18 19 20 22 24 24 24 24 25 26 27 28 28 28 28 28 28 29 31 32 31 29 28 28 29 30 31 31 32 32 32 32 32 32 32 32 31 31 31 30 30 29 28 26 25 24 22 21 21 21 21 21
11 11 12 12 13 13 14 14 14 14 15 15 16 16 16 17 17 17 18 18 18 18 18 19 19 19 19 19 19 19 19 18 17 17 16 17 18 20 22 23 24 23 24 25 27 27 28 29 29 28 27 27 28 30 31 32 31 31 31 32 32 32 32 32 32 31 31 31 31 31 31 31 31 31 31 30 29 28 27 26 24 23 22 22 21 22
11 12 12 12 13 13 13 14 14 14 14 15 15 16 16 17 17 17 17 17 17 17 17 17 17 17 17 17 17 17 17 17 16 16 16 16 17 18 20 23 24 24 23 24 25 26 27 28 28 28 29 29 30 30 32 33 33 33 33 33 33 33 33 32 32 31 30 30 31 31 31 31 31 31 31 30 29 29 28 27 26 25 25 24 24 24
11 11 12 12 13 13 13 14 14 14 14 15 16 16 17 17 17 17 17 17 16 16 16 16 17 17 17 17 17 17 17 17 17 17 17 17 18 19 20 22 24 24 24 23 24 25 27 28 29 29 30 31 32 33 33 34 34 34 34 35 35 34 33 32 31 31 30 31 32 32 32 32 31 30 30 30 29 29 29 29 28 27 27 26 26 26
11 11 12 12 12 12 13 13 13 14 15 16 16 17 17 17 17 17 17 16 16 16 16 16 17 17 18 18 18 18 18 19 19 19 19 19 19 20 21 22 23 24 24 24 24 25 26 28 29 30 30 31 33 34 34 35 35 34 34 34 35 35 34 33 32 32 32 32 32 32 32 31 30 30 29 29 29 29 30 30 29 29 28 27 27 27
11 11 11 12 12 12 13 13 14 15 16 16 17 17 18 18 17 17 17 16 16 16 17 17 18 19 20 20 20 20 20 20 20 21 21 21 21 21 21 22 23 23 24 24 25 26 26 27 29 30 31 32 33 34 34 35 35 34 33 33 34 35 35 35 34 33 33 32 31 31 30 30 30 30 30 30 30 30 30 30 31 30 29 28 28 28
11 11 12 12 12 13 14 14 15 15 16 17 17 18 18 18 18 17 17 17 17 17 17 18 19 20 21 22 22 22 22 22 22 22 22 22 22 22 22 22 23 23 24 25 26 27 27 28 29 30 31 31 32 33 35 36 35 34 33 33 34 35 36 36 34 33 31 31 31 30 30 30 31 31 30 30 31 31 31 31 31 31 30 30 30 30
11 11 12 12 13 14 14 15 15 16 17 18 18 19 19 18 18 18 18 17 18 18 18 19 20 21 23 24 24 23 23 22 22 22 23 23 23 23 23 23 23 23 24 25 27 28 28 28 29 30 31 31 32 33 34 35 36 35 34 34 33 34 34 35 35 33 32 32 32 32 32 32 32 32 31 32 32 32 33 33 32 31 32 32 32 31
11 11 12 13 13 14 15 15 16 17 17 18 19 19 19 19 19 18 19 19 18 18 19 19 20 22 23 24 25 24 24 23 23 23 22 22 22 22 23 23 24 24 24 25 26 28 29 30 30 30 30 31 32 33 34 35 36 36 35 34 33 32 33 34 35 35 34 34 34 33 33 32 32 32 33 33 33 33 33 33 33 33 33 33 32 32
12 12 13 13 14 15 15 16 17 17 18 19 19 19 19 19 19 19 19 19 19 19 19 20 21 22 23 24 25 25 25 24 24 23 23 23 22 22 22 23 23 24 24 25 26 27 28 30 31 31 30 31 32 33 34 34 35 35 35 34 33 33 34 34 34 34 34 34 34 34 33 33 32 32 33 34 34 34 34 33 33 33 34 33 33 33
12 13 14 14 15 15 16 16 17 18 18 19 19 20 20 20 20 20 20 20 20 20 20 20 21 22 23 24 24 25 25 26 26 25 24 24 23 23 22 22 23 23 24 25 26 27 28 29 30 31 31 32 33 33 34 34 34 34 35 34 34 33 33 33 33 33 33 34 34 34 34 34 33 33 34 35 35 35 35 35 34 34 34 34 33 33
13 14 14 15 15 16 16 17 18 18 19 19 20 20 20 20 20 20 20 20 20 20 20 20 21 21 22 23 24 24 26 27 27 27 26 25 25 24 23 23 23 23 24 25 26 27 28 29 29 30 30 31 33 33 33 32 32 33 33 33 33 33 33 34 34 34 33 33 34 34 35 34 34 34 35 36 36 36 36 35 34 34 33 33 33 33
14 15 15 16 16 16 17 18 18 19 19 20 20 20 20 20 20 21 21 21 21 21 21 21 21 22 22 23 24 24 25 26 27 28 27 27 27 26 25 25 25 25 25 25 25 26 27 28 28 28 28 29 30 32 32 32 31 32 32 32 32 33 33 34 34 34 33 33 34 34 34 33 33 34 36 37 37 37 36 35 34 33 33 32 32 32
15 15 16 16 17 17 17 18 19 19 20 20 21 21 21 21 20 20 20 20 20 20 20 21 21 22 23 23 24 24 25 26 27 28 28 28 28 28 28 27 27 27 26 26 26 27 27 28 27 26 25 25 27 29 31 31 31 31 31 31 31 32 33 33 33 33 32 32 33 33 33 33 34 35 36 37 37 37 36 36 34 33 32 31 31 31
15 16 16 17 17 18 18 19 19 20 20 20 21 21 21 21 21 21 20 20 20 20 20 20 21 22 23 24 24 25 25 26 27 28 28 28 28 29 29 29 29 28 28 28 28 27 27 27 27 25 24 23 23 25 27 30 31 31 30 30 30 30 31 31 32 32 32 32 33 34 34 35 35 35 35 35 36 36 36 36 34 32 31 30 29 29
15 16 16 17 17 18 18 19 19 20 20 20 21 21 21 21 21 21 20 20 20 20 21 20 21 21 22 24 24 25 26 26 28 28 29 29 29 29 29 29 29 29 29 29 28 27 26 26 26 25 24 23 21 21 23 26 29 30 30 30 30 29 30 30 31 32 33 34 34 35 36 35 35 34 33 33 33 34 34 34 33 32 30 29 28 29
Wind_Direction
269 272 275 279 283 285 286 287 289 290 291 293 294 296 298 300 301 301 302 302 302 301 300 299 298 298 297 296 295 294 293 291 290 289 288 286 285 284 284 283 283 283 283 283 283 283 283 283 283 282 282 282 281 281 280 279 278 277 276 275 275 275 275 276 276 276 276 276 276 276 276 275 275 274 273 273 272 272 271 271 272 272 272 272 273 274
278 280 282 283 284 285 287 288 289 291 292 294 296 297 299 300 301 301 301 302 302 301 300 299 298 297 296 295 294 293 292 290 289 287 286 285 284 283 283 282 282 283 283 283 283 283 283 283 283 282 282 281 281 280 279 279 278 276 275 274 274 275 276 277 277 276 276 276 276 276 276 275 275 275 275 274 274 274 274 274 275 274 273 273 273 273
284 287 289 290 290 291 291 291 291 292 293 295 297 298 299 300 301 301 301 302 302 301 300 299 298 297 295 294 293 292 291 289 288 286 285 284 283 283 283 283 283 283 284 284 284 284 284 284 283 282 282 281 280 279 278 277 276 275 274 273 273 274 276 276 276 276 275 275 275 275 275 275 275 275 274 274 274 274 274 274 274 274 273 273 273 273
280 285 288 290 292 293 293 293 293 294 295 296 298 299 300 301 302 302 302 303 303 302 300 299 298 297 295 294 293 291 290 288 287 286 285 285 284 284 285 285 285 285 285 285 285 285 284 284 283 283 281 280 279 278 277 276 275 274 273 272 271 272 274 274 274 274 274 275 274 274 274 273 273 272 272 272 272 272 272 272 272 272 272 272 273 274
282 284 286 287 288 290 292 293 295 296 298 298 300 301 302 303 304 304 304 304 304 303 302 300 298 297 295 294 293 291 289 288 287 286 286 286 286 286 286 286 285 285 285 285 284 284 283 283 282 281 280 279 277 276 275 274 273 273 272 270 270 270 272 272 273 273 273 273 272 272 271 271 271 271 272 272 273 273 273 272 272 271 271 271 272 274
282 283 283 285 287 290 292 294 295 297 299 300 301 303 304 305 306 306 307 307 306 305 303 301 300 298 296 294 293 292 290 289 288 287 287 287 287 286 285 285 284 283 282 282 282 281 281 280 280 279 278 276 276 274 274 273 273 273 272 271 270 270 270 270 270 271 270 270 270 270 270 271 272 273 274 275 275 275 275 275 275 274 274 273 273 274
281 281 283 286 290 293 295 296 297 298 300 302 303 304 305 306 307 308 308 308 308 307 306 305 304 302 300 298 297 296 295 295 294 293 292 291 290 288 287 285 284 283 282 282 282 282 282 281 280 279 278 278 277 276 276 275 275 275 275 274 272 271 270 269 269 269 269 270 270 272 273 274 275 276 277 278 278 278 278 277 277 276 276 275 275 274
280 282 285 289 293 296 297 298 299 299 300 302 304 305 307 308 308 308 308 309 309 309 310 310 309 308 306 304 304 303 303 302 302 301 300 298 297 295 293 291 289 288 287 288 288 288 288 287 285 284 283 282 281 280 280 279 279 278 277 276 275 274 273 272 272 272 273 273 274 275 276 277 278 279 279 279 280 279 279 278 278 277 277 276 276 275
280 283 287 290 294 297 299 298 298 298 299 301 303 305 306 308 309 310 311 311 310 311 311 311 311 311 309 307 307 307 307 307 307 307 307 307 307 305 304 301 299 297 296 296 296 296 295 294 291 289 287 285 284 284 283 282 281 281 280 279 278 277 277 276 276 276 276 276 277 277 278 278 279 279 279 279 279 279 278 278 278 278 278 277 276 275
283 286 290 293 294 296 297 296 295 296 299 302 304 305 306 308 310 311 311 310 309 308 308 309 309 309 309 308 308 309 310 311 311 312 313 314 315 315 313 312 310 308 307 306 305 304 303 301 298 294 291 289 288 287 286 285 285 284 283 283 282 281 281 280 280 279 279 278 278 278 278 279 279 279 279 278 278 278 278 279 279 279 278 278 277 275
286 289 292 294 293 292 292 293 294 298 304 308 308 308 307 307 308 307 305 304 303 304 304 305 306 307 308 309 311 313 315 316 316 316 317 318 319 320 320 319 318 316 315 314 313 312 311 308 305 301 298 295 293 292 291 289 289 288 287 287 286 285 285 284 283 282 281 280 279 279 279 279 278 278 277 277 277 278 278 279 278 278 277 276 275 274
286 289 288 287 288 288 289 293 297 303 307 308 306 303 300 298 298 298 297 297 299 301 302 303 304 305 307 310 313 316 318 317 316 317 318 319 320 320 320 319 318 318 318 317 317 317 315 312 309 305 302 300 298 296 295 293 292 292 291 290 289 288 287 286 284 283 282 280 280 279 278 277 277 276 276 276 276 277 278 277 277 276 275 274 274 273
287 287 287 287 288 288 290 293 297 300 300 297 294 293 293 293 293 294 294 295 296 299 301 302 302 304 308 312 316 317 317 314 313 313 313 313 314 315 315 315 315 316 317 318 318 318 317 314 310 307 305 302 300 299 298 296 295 294 294 293 291 290 288 286 285 283 281 280 279 278 277 276 276 275 275 275 275 276 276 276 275 274 274 273 273 272
285 287 288 289 289 289 289 290 291 291 290 289 290 292 292 292 292 293 293 293 294 297 300 300 300 303 308 313 317 316 313 308 306 306 305 306 308 311 313 312 313 315 317 317 317 318 318 314 311 309 307 305 303 302 301 299 298 297 296 295 293 291 289 287 285 283 281 279 278 277 276 275 275 274 274 274 275 276 275 275 274 274 273 273 272 272
284 286 287 285 285 286 286 287 286 286 287 288 290 291 290 290 290 291 292 292 294 297 301 301 301 302 305 310 314 314 309 304 301 301 301 302 305 310 313 312 312 314 316 315 315 316 318 315 313 312 310 308 306 305 304 303 302 300 299 297 295 293 291 288 286 283 281 279 277 276 275 275 274 274 274 275 275 275 275 274 274 273 272 272 271 271
283 284 282 281 282 282 282 283 283 284 287 289 289 288 289 288 288 289 290 292 294 297 300 301 302 302 303 307 311 311 307 303 300 301 302 301 305 310 313 312 311 311 314 314 314 316 317 317 315 314 313 311 309 308 307 307 306 304 302 300 298 296 294 291 288 285 283 280 278 277 276 276 275 275 275 275 275 275 274 274 273 272 272 271 271 270
282 280 279 279 279 280 280 282 284 286 288 288 287 286 285 285 286 288 290 292 294 296 297 299 300 300 301 304 307 310 310 305 301 300 301 301 305 310 314 312 309 310 312 314 314 316 318 318 318 317 315 314 314 313 312 311 310 308 306 304 302 300 298 296 293 291 288 285 283 281 280 278 277 276 276 276 276 275 275 274 273 272 271 271 270 269
281 278 277 278 278 279 281 283 283 284 285 285 284 282 281 282 286 290 292 292 293 293 294 295 295 295 297 300 302 307 310 305 301 299 300 300 304 310 315 312 309 309 311 313 315 317 318 319 319 319 318 318 318 318 317 316 315 313 311 310 308 306 304 302 300 297 295 292 289 287 284 282 280 279 277 276 276 275 275 274 273 272 271 270 269 268
277 275 275 277 278 280 281 281 281 281 281 281 282 285 287 288 291 292 292 292 292 292 292 292 291 291 292 294 298 303 303 301 299 299 299 300 304 310 314 312 309 308 311 313 315 317 319 320 320 320 320 320 321 322 322 321 320 318 317 314 312 310 307 305 303 300 298 296 294 291 288 285 283 280 278 277 276 275 274 274 273 272 271 270 270 269
275 275 274 276 279 279 279 278 277 277 277 280 285 290 292 293 293 292 291 294 294 294 294 292 290 290 291 293 296 299 300 299 299 298 297 299 303 309 313 312 309 309 311 313 316 317 318 318 319 320 320 322 323 324 325 324 323 322 320 317 314 312 309 307 304 302 299 297 294 292 289 286 284 281 280 278 276 275 275 275 274 274 273 273 272 271
275 274 273 273 274 275 275 276 276 276 279 285 290 293 294 294 293 292 293 294 294 293 293 290 288 289 291 291 293 296 300 300 298 297 297 298 303 309 313 311 308 307 309 310 313 316 316 316 316 317 319 321 323 324 325 325 324 323 322 320 318 315 312 309 306 303 300 297 294 292 289 287 285 283 282 280 279 278 277 277 276 275 274 273 273 272
269 268 268 267 268 271 274 276 277 279 283 287 290 293 295 294 294 293 293 294 293 291 289 287 286 286 287 289 293 298 301 300 297 295 294 296 301 307 313 311 308 306 306 308 311 314 314 313 313 314 317 319 322 323 324 324 324 324 323 322 321 319 317 313 310 306 302 298 295 292 290 288 286 285 284 282 281 279 278 276 274 273 272 271 271 270
263 265 267 270 272 274 276 277 278 281 285 290 293 295 300 298 297 296 296 292 289 286 285 285 286 288 290 292 296 299 301 300 297 293 291 292 298 305 310 309 306 303 303 306 308 310 310 310 311 312 314 317 320 321 322 323 324 324 324 324 323 322 321 318 315 311 306 302 298 295 292 290 287 285 283 281 279 277 276 274 272 271 270 270 270 270
266 270 274 276 277 278 278 279 281 284 288 293 295 296 295 293 290 286 284 281 281 283 285 287 289 291 293 294 297 299 300 299 294 290 288 290 294 301 306 306 304 302 302 305 306 307 307 308 309 310 311 314 317 320 321 323 324 324 325 325 325 325 324 322 319 315 311 307 302 298 294 290 287 285 282 280 278 277 275 274 273 271 270 269 269 270
278 279 279 279 278 278 278 279 281 282 283 282 278 274 273 273 273 272 273 276 280 284 288 290 291 291 293 295 296 298 300 298 293 288 288 290 294 299 303 303 302 301 302 304 306 307 305 305 306 308 309 313 316 319 321 323 324 325 325 325 326 325 324 323 320 317 314 310 305 301 296 292 288 285 282 280 278 276 275 274 272 271 270 269 270 270
286 284 282 281 279 278 277 276 277 277 276 274 268 264 265 267 270 273 276 279 283 286 288 289 289 291 294 296 297 297 299 297 292 288 289 291 293 295 300 302 302 302 302 304 305 304 303 303 305 307 310 314 318 320 321 323 324 324 324 324 324 323 323 322 321 319 316 313 309 305 300 296 292 288 285 282 280 278 276 275 273 273 272 272 272 272
288 287 286 284 283 282 280 279 279 278 278 276 274 272 272 272 275 278 280 283 285 288 289 288 289 291 294 295 295 295 296 293 290 290 292 293 292 293 298 303 304 303 302 302 302 302 302 304 306 309 312 316 319 320 320 320 320 320 320 321 321 322 323 322 322 321 320 318 315 311 307 303 299 294 291 287 284 282 280 278 277 276 276 275 275 274
289 289 288 287 286 286 285 284 283 282 279 277 276 275 275 276 278 281 283 286 289 289 287 285 286 288 290 291 293 295 296 295 296 298 299 295 290 290 297 302 302 300 300 301 303 304 305 306 308 311 313 315 315 315 314 314 314 315 318 320 321 323 323 324 324 324 323 322 320 317 314 310 306 302 298 294 291 288 286 283 282 281 279 278 276 274
292 289 287 285 284 282 282 281 280 278 275 274 273 273 274 277 281 284 287 290 290 288 286 285 285 286 288 291 294 297 298 302 305 307 303 293 288 289 296 299 299 299 301 303 305 307 306 306 308 309 310 310 309 307 307 309 312 315 318 321 323 324 324 325 325 325 324 323 322 320 318 315 312 309 305 302 298 295 291 288 286 284 282 279 276 275
294 292 288 282 278 275 273 273 272 272 272 273 275 277 280 283 286 289 291 292 290 287 285 285 285 286 287 290 294 297 299 304 307 304 296 290 288 290 295 297 298 300 302 304 306 307 306 307 307 306 305 304 304 304 306 309 313 316 319 321 322 323 324 324 323 323 323 323 323 321 320 318 316 313 310 306 303 299 295 291 288 285 282 279 277 276
298 297 294 289 283 278 276 275 276 277 279 282 284 287 289 290 291 292 292 292 290 287 286 285 285 285 285 286 287 289 290 295 295 290 289 289 289 292 296 298 300 302 303 303 303 303 304 306 307 307 305 304 304 306 309 311 314 316 318 319 320 321 322 322 322 322 322 322 322 322 320 319 317 315 313 309 306 302 298 295 291 287 283 280 278 277
302 301 299 295 293 290 288 288 288 289 290 291 292 293 293 293 293 293 292 291 289 287 286 285 285 285 284 282 281 281 285 290 292 291 291 291 292 294 297 299 300 302 303 301 298 296 296 299 303 306 307 305 306 308 311 312 314 315 316 316 317 318 320 320 320 319 320 320 321 321 320 319 318 317 315 312 309 306 303 299 295 291 286 283 281 279
303 301 299 297 295 295 294 294 295 295 295 295 296 295 295 295 295 295 294 292 290 288 287 285 285 285 285 284 283 284 289 293 296 298 297 295 294 295 297 298 298 300 302 301 297 293 291 294 299 303 306 306 307 308 310 311 313 314 314 314 314 316 318 318 317 316 317 318 319 319 320 320 320 319 318 316 313 311 308 305 300 296 291 287 285 283
302 301 299 297 296 296 297 297 298 298 298 298 298 298 298 298 298 298 297 295 293 291 289 286 284 284 284 284 285 288 292 296 299 300 298 293 291 292 294 295 297 298 300 300 298 296 293 294 296 300 303 305 307 307 308 310 312 314 314 312 312 312 314 315 315 315 315 316 317 318 319 320 320 319 319 317 316 314 312 308 305 300 295 290 287 285
301 299 298 297 297 298 298 299 299 300 300 301 301 301 301 301 302 301 300 298 296 294 292 290 287 285 284 283 285 288 293 297 300 298 294 289 289 291 293 295 297 299 300 300 299 297 295 296 296 297 299 302 305 307 308 309 311 312 312 311 311 311 312 313 313 313 314 314 314 315 316 317 317 317 317 317 316 315 313 310 307 303 298 292 286 282
299 297 297 297 297 298 299 299 300 300 301 302 302 303 303 303 303 302 300 299 297 295 293 292 290 289 287 286 287 290 295 300 301 298 295 292 292 293 294 296 299 300 300 300 299 298 297 297 298 298 298 298 301 305 308 310 310 310 310 311 312 312 313 313 313 312 312 312 312 313 314 314 314 314 314 315 315 315 313 311 308 305 301 297 291 285
295 295 295 296 296 297 298 298 299 300 301 302 303 303 303 303 303 301 300 299 298 296 295 293 292 291 291 290 291 293 297 301 303 303 302 301 299 297 296 299 302 303 301 299 300 299 298 297 298 298 296 295 296 300 305 309 311 311 312 313 313 313 314 314 314 312 311 310 310 311 311 311 311 311 311 312 313 313 312 311 310 308 306 303 299 294
291 291 292 294 295 296 297 298 299 300 301 302 302 302 303 302 302 301 300 299 298 297 296 295 295 294 294 294 294 296 298 301 304 307 309 308 305 302 302 303 306 307 306 304 302 300 297 295 294 295 296 296 297 299 302 305 308 310 312 314 314 314 314 315 315 313 310 308 308 308 309 309 309 309 309 310 310 310 309 309 310 310 309 307 304 300
287 288 290 293 295 296 297 298 299 299 300 300 301 301 302 302 302 302 302 302 301 301 300 300 299 299 298 298 299 300 302 304 307 310 313 313 311 309 308 307 308 310 311 308 304 300 296 293 291 291 293 295 298 300 303 304 305 307 310 313 314 315 316 316 314 311 308 307 306 307 308 309 309 309 308 308 308 306 305 306 307 308 307 305 303 300
284 287 290 294 296 297 298 298 298 299 299 300 300 301 302 303 304 305 305 306 306 306 306 306 305 305 305 304 305 306 308 310 312 314 316 317 316 315 312 310 310 311 312 310 306 301 297 293 292 292 293 293 295 298 302 303 304 305 307 307 308 311 316 315 313 311 310 309 308 308 309 310 309 307 306 305 304 303 303 303 304 304 304 300 297 296
284 287 291 295 297 298 297 297 298 298 299 299 301 302 304 305 307 308 309 310 310 310 311 310 310 309 308 309 309 311 312 314 316 317 319 319 319 318 315 312 312 312 312 310 307 303 299 295 294 294 294 295 296 297 299 301 302 303 302 300 302 307 312 313 313 312 312 311 310 309 307 306 305 304 304 303 303 303 303 302 302 302 301 298 295 292
285 289 293 297 298 298 297 297 298 298 299 300 302 303 305 306 308 309 311 312 313 313 313 313 312 312 311 311 312 313 315 317 318 320 321 321 321 320 318 315 314 314 312 310 307 304 302 299 297 295 295 296 296 296 297 299 302 302 300 299 301 305 309 311 313 313 310 308 307 306 305 304 303 303 304 304 304 304 304 303 301 300 299 297 296 294
288 292 296 299 299 298 298 298 298 299 300 301 302 303 305 306 307 309 310 312 313 314 315 315 315 314 313 314 315 316 318 319 320 320 321 322 322 321 320 318 317 316 313 309 306 304 305 303 299 297 298 299 297 295 294 297 299 301 301 302 302 301 300 305 310 311 308 306 305 305 305 305 306 306 306 305 305 305 304 302 300 299 299 298 297 295
293 297 299 300 300 300 300 300 300 301 301 301 302 303 304 305 307 308 310 311 313 314 315 316 316 315 315 316 318 318 319 319 319 319 320 321 321 321 321 320 319 317 313 308 304 303 304 303 301 301 302 301 298 295 294 295 297 300 303 305 303 299 296 300 306 308 307 307 307 307 307 308 308 307 306 304 304 303 302 301 300 299 299 298 297 295
297 299 301 302 302 303 303 303 302 301 301 301 301 302 303 305 306 308 310 311 312 314 315 315 316 314 313 315 318 319 319 319 319 319 321 322 322 322 321 319 317 315 312 308 305 303 301 300 301 304 305 302 298 295 294 295 297 300 304 306 305 302 301 303 304 304 304 305 306 307 307 308 307 305 303 302 302 301 300 299 298 297 297 297 296 294
300 302 303 304 305 305 304 304 303 302 302 302 302 303 304 305 306 308 309 311 312 313 314 314 314 312 311 314 317 319 320 320 320 321 322 322 323 322 321 319 316 314 310 307 306 304 302 301 302 304 304 302 299 297 296 297 298 300 303 305 305 304 303 303 303 303 303 303 304 306 308 309 306 303 300 300 300 300 299 298 297 296 296 296 294 293
303 304 304 305 305 305 305 305 305 304 303 303 303 304 305 306 307 308 310 310 311 313 313 314 314 313 311 314 317 318 319 320 321 322 322 323 323 322 321 320 318 316 312 308 306 305 303 304 305 304 302 299 297 298 300 301 300 300 301 303 303 302 300 300 302 303 304 303 304 306 308 308 305 301 300 300 300 299 298 297 296 296 295 294 293 292
303 304 305 306 306 307 307 307 307 306 305 304 305 306 307 308 309 310 311 311 312 312 313 314 314 314 313 315 318 320 319 319 320 322 322 323 324 324 323 321 320 318 315 312 309 307 306 306 306 304 301 297 295 297 301 304 303 302 301 302 301 299 299 300 302 304 304 303 304 305 306 304 301 300 300 300 299 298 297 296 296 295 294 293 292 290
306 307 308 308 309 309 309 309 308 307 307 307 308 309 310 311 312 312 312 312 312 313 314 314 314 313 313 315 318 321 320 319 319 320 321 322 323 324 323 322 321 319 317 315 313 311 310 309 307 305 302 299 297 297 300 304 304 303 302 300 298 297 298 300 302 303 303 303 303 303 303 301 300 300 300 299 298 297 297 297 296 295 294 293 292 290
308 309 310 310 310 309 309 309 309 309 310 311 311 312 313 313 314 314 314 314 313 313 314 314 313 312 312 314 317 319 319 318 318 319 320 321 322 322 322 322 321 320 318 316 315 313 311 309 308 306 304 301 298 297 298 301 303 303 300 297 296 296 296 298 300 301 302 302 302 302 302 301 301 301 300 298 296 296 297 296 296 295 294 294 292 290
309 310 310 310 309 308 308 309 310 311 312 313 313 314 315 315 316 316 316 315 314 314 313 314 314 313 312 314 316 318 318 318 317 317 319 320 321 320 320 320 319 318 316 314 313 311 309 307 306 305 305 304 302 298 296 298 300 299 297 296 296 297 296 297 298 301 302 302 302 302 302 302 301 300 299 297 295 294 295 295 295 294 294 294 292 290